全球卫星定位系统 GPS 80星 (NAVSTAR 80 (USA 309))

导读

NAVSTAR 80(USA 309)是美国于2020年11月5日发射的GPS导航卫星,隶属于美国第三代GPS全球定位系统组网卫星群,由洛克希德·马丁公司研制。它具备更优秀的定位精度与抗干扰能力,定位精度较前代提升三倍,抗干扰能力提升八倍,主要用于替换老旧在轨卫星,为全球提供高精度定位、导航与授时服务,强化GPS系统的军民两用服务能力,目前稳定运行在中地球轨道。

基本信息
目录编号:
46826
目录名称:
NAVSTAR 80 (USA 309)
国际标识:
2020-078A
轨道中心:
EARTH
卫星名称:
GPS 80星
卫星全名:
全球卫星定位系统 GPS 80星 (NAVSTAR 80 (USA 309))
卫星状态:
在轨 (已飞行2054 天)
发射日期:
2020-11-05 UTC
国别 :
美国 (US)
星等 :
--
轨道信息
数据来源 国际轨道数据 AOE轨道数据
星历时间 2026-06-20T14:41:50+0800
1天前
查看轨道信息
2026-06-20T14:00:00+0800
1天前
查看轨道信息
半长轴 26560.234km 26560.234km
偏心率 0.0073634 0.0073547
轨道倾角 53.979° 53.979°
近地点辐角 207.359° 207.364°
升交点赤经 210.653° 210.653°
平近点角 167.321° 146.341°
近地点 19986.523km 19986.754km
远地点 20377.671km 20377.44km
周期 717.972分钟 717.972分钟
每日圈数 2.005649 2.005649
详细信息
平衡模式:
三轴稳定
覆盖范围:
全球
运营商:
美国太空军
运营商所在国:
美国
制造商(研发单位):
洛克希德·马丁公司
制造商所在国:
美国
使用方式:
暂无
工作目标:
提供军用及民用全球定位与导航服务
预期寿命:
15年
卫星简介
全球定位系统(英语:Global Positioning System,通常简称GPS),又称全球卫星定位系统,是美国国防部研制,美国太空军运营与维护的中地球轨道卫星导航系统。它可以为地球表面约98%的地区提供准确的定位、测速和高精度的标准时间。全球定位系统可满足位于全球地面任何一处或近地空间的军事用户连续且精确地确定三维位置、三维运动和时间的需求。该系统包括太空中的31颗GPS人造卫星.该卫星仍在工作。
2D轨道图
3D轨道图
轨道高度分析图
轨道倾角分析图
轨道综合分析图
查看轨道综合分析图